GW1292 Weather Reports


Display with metric or nautical units.
time (UTC)temp
F
wind
direction
speed
MPH
gust
MPH
rain 1hr
in
rain 24hr
in
rain mn
in
humidity
%
barometer
mb
20260903163205 72 16 2.0 5.0 0.15 0.56 0.24 96 991.4
20260903161704 71 2 3.0 6.0 0.12 0.55 0.23 96 991.3
20260903161204 71 354 2.0 6.0 0.11 0.55 0.23 96 991.3
20260903160204 71 333 3.0 7.0 0.03 0.46 0.14 95 991.3
20260903154704 71 283 3.0 5.0 0.03 0.43 0.10 95 992.1
20260903154204 71 68 1.0 5.0 0.02 0.41 0.09 96 991.6
20260903153204 72 56 2.0 3.0 0.02 0.41 0.09 95 991.3
20260903151205 72 24 2.0 3.0 0.05 0.42 0.11 95 990.8
20260903150704 72 60 0.0 2.0 0.05 0.42 0.11 95 990.6
20260903144703 72 59 0.0 1.0 0.00 0.37 0.07 95 991.0
20260903144204 72 282 0.0 0.0 0.00 0.37 0.07 95 990.6
20260903143704 72 282 0.0 2.0 0.00 0.37 0.06 94 990.7
20260903143204 72 282 0.0 2.0 0.00 0.37 0.06 94 990.8
20260903141703 72 82 0.0 2.0 0.00 0.37 0.06 94 991.1
20260903141204 72 82 0.0 2.0 0.00 0.37 0.06 94 990.9
20260903140203 72 66 2.0 3.0 0.00 0.37 0.06 94 990.9
20260903134704 71 64 2.0 3.0 0.00 0.37 0.06 94 991.1
20260903134204 71 76 3.0 3.0 0.00 0.37 0.06 94 991.0
20260903133703 71 66 2.0 5.0 0.00 0.37 0.06 94 991.1
20260903133203 71 65 2.0 5.0 0.00 0.37 0.06 94 990.9
20260903131205 71 58 0.0 3.0 0.00 0.37 0.06 95 990.8
20260903130203 71 64 1.0 5.0 0.03 0.37 0.06 95 990.8
20260903124704 71 65 2.0 3.0 0.07 0.37 0.06 96 990.8
20260903123704 70 54 2.0 3.0 0.06 0.37 0.06 97 990.8
20260903123204 70 100 0.0 2.0 0.06 0.37 0.06 97 990.9
20260903121703 70 49 1.0 2.0 0.14 0.37 0.14 97 990.9
20260903121203 69 61 1.0 1.0 0.14 0.37 0.14 97 990.9
20260903120705 69 67 0.0 3.0 0.14 0.37 0.14 97 991.0
20260903114204 68 85 2.0 2.0 0.00 0.23 0.00 97 991.3
20260903113704 68 274 0.0 1.0 0.00 0.23 0.00 97 991.3
20260903111704 67 44 0.0 0.0 0.00 0.23 0.00 97 991.1
20260903111205 67 44 0.0 0.0 0.00 0.23 0.00 97 991.0
20260903110704 67 44 0.0 1.0 0.00 0.23 0.00 97 991.0
20260903110207 67 44 0.0 1.0 0.00 0.33 0.00 96 991.0
20260903104704 67 104 0.0 0.0 0.00 0.45 0.00 96 990.9
20260903104204 67 104 0.0 0.0 0.00 0.45 0.00 96 990.9
20260903103704 67 104 0.0 0.0 0.00 0.45 0.00 96 991.0
20260903103204 67 104 0.0 0.0 0.00 0.45 0.00 96 991.0
20260903101703 67 104 0.0 0.0 0.00 0.45 0.00 96 990.9
20260903101204 67 104 0.0 0.0 0.00 0.45 0.00 96 991.1
20260903100703 67 104 0.0 0.0 0.00 0.45 0.00 97 991.1
20260903100204 67 104 0.0 0.0 0.00 0.45 0.00 97 990.9
20260903094704 67 104 0.0 0.0 0.00 0.45 0.00 96 990.9
20260903093704 67 104 0.0 0.0 0.00 0.45 0.00 96 990.8
20260903093204 67 104 0.0 0.0 0.00 0.45 0.00 97 990.9
20260903091704 66 104 0.0 0.0 0.00 0.45 0.00 96 990.7
20260903090705 66 104 0.0 0.0 0.00 0.45 0.00 96 990.5
20260903090205 65 104 0.0 0.0 0.00 0.45 0.00 96 990.6
20260903083703 66 104 0.0 0.0 0.00 0.45 0.00 96 990.7
20260903083204 66 104 0.0 0.0 0.00 0.45 0.00 96 990.7
20260903081203 66 104 0.0 0.0 0.00 0.46 0.00 96 990.8
20260903080705 66 104 0.0 0.0 0.00 0.46 0.00 96 990.8
20260903080204 66 104 0.0 0.0 0.00 0.46 0.00 96 990.8
20260903074704 67 104 0.0 0.0 0.00 0.46 0.00 96 990.9
20260903074203 68 104 0.0 0.0 0.00 0.46 0.00 96 990.9
20260903073703 69 104 0.0 0.0 0.00 0.47 0.00 96 990.9
20260903073203 69 104 0.0 0.0 0.00 0.47 0.00 96 990.9
20260903071205 68 94 0.0 0.0 0.00 0.52 0.00 96 991.0
20260903070704 68 94 0.0 1.0 0.00 0.52 0.00 97 991.0
20260903070204 67 94 0.0 1.0 0.00 0.52 0.00 97 990.9
20260903064704 66 68 0.0 0.0 0.00 0.52 0.00 96 991.0
20260903064203 66 68 0.0 0.0 0.00 0.52 0.00 96 991.0
20260903063703 66 68 0.0 0.0 0.00 0.52 0.00 96 991.0
20260903061704 66 68 0.0 0.0 0.00 0.52 0.00 96 991.2
20260903060703 66 68 0.0 0.0 0.00 0.52 0.00 96 991.1
20260903054704 66 68 0.0 0.0 0.22 0.52 0.00 96 991.0
20260903054203 67 68 0.0 0.0 0.22 0.52 0.00 96 991.0
20260903053703 66 68 0.0 0.0 0.22 0.52 0.00 96 990.9
20260903053203 66 68 0.0 0.0 0.22 0.52 0.00 96 990.8
20260903051704 66 68 0.0 0.0 0.22 0.52 0.00 95 990.6
20260903051204 66 68 0.0 0.0 0.22 0.52 0.00 95 990.6
20260903044703 67 68 0.0 0.0 0.00 0.30 0.22 95 990.7
20260903044203 67 68 0.0 0.0 0.00 0.30 0.22 95 990.6
20260903043203 67 68 0.0 0.0 0.00 0.30 0.22 95 990.7
20260903041704 67 68 0.0 0.0 0.00 0.30 0.22 95 990.8
20260903041204 67 68 0.0 0.0 0.00 0.30 0.22 95 990.8
20260903040703 67 68 0.0 0.0 0.00 0.30 0.22 95 990.7
20260903040203 67 68 0.0 0.0 0.00 0.30 0.22 95 990.8
20260903034704 67 68 0.0 0.0 0.00 0.30 0.22 95 990.8
20260903034204 67 68 0.0 0.0 0.00 0.30 0.22 95 990.9
20260903033705 67 68 0.0 0.0 0.00 0.30 0.22 95 990.9
20260903033204 67 68 0.0 0.0 0.00 0.30 0.22 95 990.9
20260903031704 68 68 0.0 0.0 0.00 0.30 0.22 95 990.8
20260903031204 68 68 0.0 0.0 0.00 0.30 0.22 95 990.8
20260903030704 68 68 0.0 0.0 0.00 0.30 0.22 95 990.9
20260903030204 68 68 0.0 0.0 0.00 0.30 0.22 95 990.9
20260903024704 68 68 0.0 0.0 0.00 0.30 0.22 95 990.9
20260903024203 68 68 0.0 0.0 0.00 0.30 0.22 94 990.9
20260903023703 68 68 0.0 0.0 0.00 0.30 0.22 94 990.9
20260903023204 68 68 0.0 0.0 0.00 0.30 0.22 94 990.9
20260903021203 68 68 0.0 0.0 0.00 0.30 0.22 94 990.7
20260903020704 68 68 0.0 0.0 0.00 0.30 0.22 94 990.7
20260903020204 69 68 0.0 0.0 0.00 0.30 0.22 94 990.7
20260903014704 69 68 0.0 0.0 0.00 0.30 0.22 94 990.7
20260903013705 69 68 0.0 0.0 0.00 0.30 0.22 93 990.6
20260903013203 69 68 0.0 0.0 0.00 0.30 0.22 93 990.6
20260903011704 70 68 0.0 0.0 0.00 0.30 0.22 92 990.4
20260903011204 70 68 0.0 0.0 0.00 0.30 0.22 92 990.3
20260903010704 70 68 0.0 0.0 0.00 0.30 0.22 92 990.3
20260903010205 70 68 0.0 0.0 0.00 0.30 0.22 92 990.3
20260903004704 71 68 0.0 0.0 0.00 0.30 0.22 91 990.1
20260903004204 71 68 0.0 0.0 0.00 0.30 0.22 91 990.1
20260903003204 72 68 0.0 2.0 0.00 0.30 0.22 90 990.1
20260903001704 72 59 0.0 2.0 0.00 0.30 0.22 89 990.3
20260903001205 73 58 1.0 2.0 0.00 0.30 0.22 89 990.2
20260903000704 73 72 1.0 2.0 0.00 0.30 0.22 88 990.1
20260902234703 74 59 1.0 2.0 0.00 0.30 0.22 86 990.1
20260902234205 75 74 2.0 2.0 0.00 0.30 0.22 85 990.1
20260902233704 75 87 1.0 3.0 0.00 0.30 0.22 84 990.0
20260902233205 75 72 1.0 3.0 0.00 0.30 0.22 86 990.0
20260902231703 75 84 1.0 3.0 0.00 0.30 0.22 84 990.1
20260902231204 75 95 1.0 3.0 0.00 0.30 0.22 84 990.0
20260902230705 75 84 2.0 5.0 0.00 0.30 0.22 84 989.9
20260902230204 75 120 2.0 5.0 0.00 0.30 0.22 84 990.0
20260902224704 76 100 2.0 5.0 0.00 0.30 0.22 82 989.8
20260902224205 76 124 2.0 3.0 0.00 0.30 0.22 81 989.8
20260902223704 76 61 1.0 3.0 0.00 0.30 0.22 80 989.9
20260902223203 77 60 1.0 5.0 0.00 0.30 0.22 78 990.0
20260902221704 76 53 2.0 3.0 0.00 0.30 0.22 80 990.2
20260902221205 76 52 2.0 3.0 0.00 0.30 0.22 81 990.1
20260902220704 76 63 1.0 3.0 0.00 0.30 0.22 82 990.2
20260902220203 76 151 2.0 3.0 0.00 0.30 0.22 82 990.2
20260902214204 74 125 1.0 5.0 0.00 0.30 0.22 88 990.4
20260902213704 73 58 3.0 5.0 0.00 0.30 0.22 88 990.3
20260902213203 73 51 2.0 5.0 0.00 0.30 0.22 87 990.4
20260902211704 74 77 2.0 6.0 0.00 0.30 0.22 86 990.3
20260902211203 74 59 3.0 5.0 0.00 0.30 0.22 86 990.4
20260902210704 75 72 3.0 5.0 0.00 0.30 0.22 84 990.5
20260902210203 75 70 2.0 5.0 0.00 0.30 0.22 84 990.6
20260902204704 76 88 3.0 6.0 0.00 0.30 0.22 81 990.5
20260902204203 76 59 2.0 5.0 0.00 0.30 0.22 81 990.5
20260902203703 76 56 2.0 5.0 0.00 0.30 0.22 81 990.5
20260902203204 76 58 2.0 5.0 0.00 0.30 0.22 81 990.5
20260902201704 75 340 1.0 5.0 0.00 0.30 0.22 83 990.8
20260902201203 75 74 1.0 5.0 0.00 0.30 0.22 82 990.8
20260902200703 76 82 3.0 5.0 0.00 0.30 0.22 82 990.8
20260902194704 76 131 2.0 3.0 0.00 0.30 0.22 80 990.6
20260902193704 76 69 1.0 6.0 0.00 0.30 0.22 80 990.7
20260902193205 76 85 1.0 3.0 0.00 0.30 0.22 80 990.6
20260902191703 76 182 2.0 5.0 0.00 0.30 0.22 80 990.7
20260902191204 77 132 2.0 5.0 0.00 0.30 0.22 80 990.8
20260902190704 78 87 1.0 5.0 0.00 0.30 0.22 74 990.9
20260902190203 78 203 1.0 5.0 0.00 0.30 0.22 74 991.0
20260902184704 78 244 1.0 3.0 0.00 0.30 0.22 72 991.0
20260902184203 77 131 1.0 5.0 0.00 0.30 0.22 74 991.0
20260902183704 76 274 2.0 5.0 0.00 0.30 0.22 76 991.0
20260902183204 77 247 2.0 5.0 0.00 0.30 0.22 77 991.0
20260902181703 77 129 2.0 5.0 0.00 0.30 0.22 78 990.8
20260902181203 77 142 1.0 5.0 0.00 0.30 0.22 77 990.8
20260902180705 77 248 2.0 3.0 0.00 0.30 0.22 77 991.0
20260902174704 76 241 2.0 5.0 0.00 0.30 0.22 81 991.5
20260902174204 76 246 3.0 5.0 0.00 0.30 0.22 80 991.5
20260902173705 75 205 1.0 5.0 0.00 0.30 0.22 79 991.4
20260902173204 76 238 3.0 5.0 0.00 0.30 0.22 80 991.3
20260902171204 75 141 2.0 5.0 0.00 0.30 0.22 81 991.2
20260902170704 76 266 3.0 5.0 0.00 0.30 0.22 80 991.2
20260902170203 75 48 2.0 5.0 0.01 0.30 0.22 80 991.2
20260902164704 73 136 0.0 3.0 0.01 0.30 0.22 86 991.6
20260902164203 73 240 2.0 3.0 0.01 0.30 0.22 85 991.5
20260902163704 72 54 1.0 2.0 0.01 0.30 0.22 86 991.4